This is the latest recevied weather packets stored in our database for station/object K1PM-WX. If no packets are shown the sender has not sent any weather packets the latest 1 day(s).
| Time | Temp. | Humidity | Pressure | Rain* | Wind** | Luminosity | Snow |
|---|---|---|---|---|---|---|---|
| 1778000637 | 16.67° C | 73% | 1028 hPa | 0 mm | 6.26 m/s, 225° | - | - |
| 1778000338 | 16.67° C | 72% | 1028 hPa | 0 mm | 12.07 m/s, 270° | - | - |
| 1778000037 | 17.22° C | 71% | 1028 hPa | 0 mm | 5.36 m/s, 248° | - | - |
| 1777999737 | 17.22° C | 71% | 1028 hPa | 0 mm | 7.6 m/s, 225° | - | - |
| 1777999436 | 17.78° C | 71% | 1028 hPa | 0 mm | 9.83 m/s, 248° | - | - |
| 1777999136 | 17.22° C | 71% | 1028 hPa | 0 mm | 6.26 m/s, 203° | - | - |
| 1777998836 | 17.22° C | 71% | 1027 hPa | 0 mm | 6.26 m/s, 203° | - | - |
| 1777998537 | 17.22° C | 72% | 1027 hPa | 0 mm | 10.73 m/s, 225° | - | - |
| 1777998236 | 17.22° C | 72% | 1027 hPa | 0 mm | 9.83 m/s, 225° | - | - |
| 1777997937 | 16.67° C | 72% | 1027 hPa | 0 mm | 8.49 m/s, 225° | - | - |
| 1777997638 | 16.67° C | 72% | 1028 hPa | 0 mm | 6.71 m/s, 203° | - | - |
| 1777997336 | 16.67° C | 72% | 1028 hPa | 0 mm | 8.49 m/s, 270° | - | - |
| 1777997037 | 16.67° C | 72% | 1028 hPa | 0.25 mm | 7.15 m/s, 225° | - | - |
| 1777996736 | 16.67° C | 71% | 1028 hPa | 0.25 mm | 10.28 m/s, 270° | - | - |
| 1777996438 | 16.67° C | 71% | 1028 hPa | 0.25 mm | 7.15 m/s, 225° | - | - |
| 1777996136 | 16.67° C | 71% | 1028 hPa | 0.25 mm | 10.28 m/s, 270° | - | - |
| 1777995837 | 16.67° C | 70% | 1028 hPa | 0.25 mm | 4.47 m/s, 270° | - | - |
| 1777995537 | 16.67° C | 70% | 1027 hPa | 0.25 mm | 7.6 m/s, 225° | - | - |
| 1777995237 | 17.22° C | 70% | 1027 hPa | 0.25 mm | 4.47 m/s, 270° | - | - |
| 1777994936 | 17.22° C | 70% | 1027 hPa | 0.25 mm | 6.26 m/s, 225° | - | - |
| 1777994638 | 17.22° C | 71% | 1027 hPa | 0.25 mm | 8.05 m/s, 248° | - | - |
| 1777994336 | 17.22° C | 71% | 1027 hPa | 0.25 mm | 8.05 m/s, 270° | - | - |
| 1777994037 | 17.22° C | 71% | 1027 hPa | 0.25 mm | 7.15 m/s, 248° | - | - |
| 1777993737 | 17.22° C | 71% | 1027 hPa | 0 mm | 7.6 m/s, 203° | - | - |
| 1777993437 | 17.22° C | 72% | 1026 hPa | 0 mm | 6.26 m/s, 225° | - | - |
* Rain latest hour (hover to see other rain measurements)
** Current wind speed in m/s (hover to see current wind gust speed)